Theta_e
303 302 300 298 296 294 294 296 297 296 296 296 296 295 295 295 295 295 295 295 296 295 294 297 299 300 300 300 300 299 300 300 300 300 300 300 300 299 298 297 295 294 295 295 295 294 292 290 290 290 289 289
299 298 295 294 294 294 295 296 296 296 295 295 295 295 295 295 295 295 294 294 293 293 293 293 295 298 299 299 298 296 296 298 299 299 299 299 298 297 295 292 291 291 292 292 292 292 291 290 290 290 290 290
296 294 293 294 294 295 295 295 295 295 295 294 294 294 294 294 294 294 293 293 293 292 292 292 292 294 295 295 294 292 292 294 295 296 296 296 295 293 291 291 291 291 290 291 291 291 290 290 290 290 290 290
295 294 294 295 295 295 295 295 294 294 294 293 293 293 293 293 293 293 292 292 292 291 291 291 291 291 291 291 290 290 290 290 291 292 293 292 291 291 291 291 291 290 290 290 290 290 290 290 290 290 290 290
295 295 295 295 295 295 294 294 294 293 293 293 293 293 292 293 292 292 292 291 291 291 290 290 290 290 290 290 289 290 289 289 289 289 290 290 290 290 290 290 290 290 290 290 290 290 290 290 290 290 290 290
296 296 295 295 295 294 294 293 293 293 293 292 292 292 292 292 291 291 291 291 290 290 290 290 290 290 290 290 290 290 289 289 289 289 289 289 289 289 290 290 290 290 290 290 290 290 290 290 290 290 290 290
296 296 295 295 294 294 293 293 292 292 292 291 291 291 291 291 290 290 290 290 290 290 290 290 290 290 290 290 290 290 289 289 289 289 288 288 288 288 289 289 289 289 289 289 289 289 290 290 290 290 290 290
296 296 295 294 293 292 292 292 291 291 291 290 290 290 290 290 289 289 289 289 289 290 290 290 290 290 290 290 290 290 290 290 289 289 289 288 288 288 288 288 288 288 288 288 288 288 288 289 289 289 289 289
295 294 293 292 292 291 291 291 291 290 290 290 290 290 289 289 289 289 289 289 290 290 290 290 290 290 290 290 290 290 289 289 289 289 289 289 289 288 288 288 287 287 287 287 287 287 287 287 287 287 287 288
293 292 292 292 291 291 291 290 290 290 290 290 289 289 289 289 289 289 289 289 289 290 290 290 289 289 289 289 289 289 288 288 288 288 288 288 288 288 287 287 287 287 286 286 286 286 286 286 286 286 286 286
292 292 292 291 291 291 291 290 290 290 290 289 289 289 289 289 289 289 289 289 289 289 289 289 288 288 288 288 288 287 287 287 287 287 287 287 286 286 286 287 286 286 286 286 286 286 286 286 286 286 286 285
292 291 291 291 290 290 290 290 290 289 289 289 289 289 289 289 289 289 289 289 289 288 288 288 287 287 287 286 286 286 286 286 286 286 286 286 286 285 286 286 286 286 286 286 286 286 286 286 286 286 286 285
291 290 290 290 290 290 289 289 289 288 288 288 288 288 288 288 288 288 288 288 288 287 287 287 286 286 286 285 285 285 285 285 285 284 284 284 284 284 284 284 285 285 285 285 284 285 285 285 286 286 286 285
290 290 289 289 289 289 288 288 288 287 287 287 287 287 287 287 287 287 286 286 286 285 285 285 285 284 284 284 284 284 283 283 283 283 282 282 282 282 282 282 282 283 283 284 283 283 284 284 284 285 285 285
289 289 289 288 288 288 287 287 287 287 287 287 287 287 286 286 285 285 284 284 283 283 283 282 282 282 282 282 282 282 282 282 281 281 281 281 280 280 280 280 280 281 281 282 282 282 282 283 283 283 284 284
289 288 288 288 287 287 287 287 287 287 286 286 286 285 285 284 284 283 283 282 282 281 281 280 280 280 280 280 280 280 280 280 279 279 279 279 279 279 279 279 279 279 280 280 280 281 281 281 282 282 282 283
288 288 288 287 287 287 287 286 286 285 285 284 284 283 283 283 282 282 281 281 280 280 279 279 278 278 278 278 278 278 278 278 278 278 278 278 278 278 278 278 278 279 279 279 279 279 280 280 280 281 281 281
288 287 287 287 287 286 285 285 284 283 283 283 282 282 282 281 281 281 280 280 279 278 278 277 277 277 276 276 276 276 276 276 276 276 276 276 277 277 277 277 277 277 277 278 278 278 278 279 279 279 280 280
287 287 286 286 285 284 284 283 283 283 282 282 281 281 281 280 280 279 279 278 278 277 277 276 276 276 275 275 275 275 275 275 275 275 275 275 275 275 275 275 276 276 276 276 277 277 277 278 278 278 279 279
287 286 285 284 284 283 283 282 282 282 282 281 281 280 280 279 279 278 278 277 276 276 275 275 275 275 274 274 274 274 274 274 274 274 274 274 274 274 274 274 274 275 275 275 276 276 276 277 277 278 278 279
285 284 284 283 283 282 282 282 282 282 281 281 280 280 279 279 278 277 277 276 275 275 275 274 274 274 274 274 274 273 273 273 273 273 273 273 273 272 273 273 273 273 274 274 275 276 276 276 277 277 278 279
284 283 283 283 283 282 282 282 282 282 281 281 280 279 279 278 277 277 276 275 275 274 274 274 274 273 273 273 273 273 273 273 272 272 272 272 272 272 272 272 272 272 273 273 274 275 275 276 276 277 278 278
283 283 283 283 283 283 282 282 282 282 281 280 280 279 278 277 277 276 275 275 275 274 274 274 273 273 273 273 272 272 272 272 272 272 271 271 271 271 271 271 271 271 272 272 273 274 275 276 276 277 278 277
283 283 283 283 283 283 282 282 282 281 281 280 279 278 278 277 276 275 275 274 274 274 273 273 273 273 272 272 272 272 271 271 271 271 271 271 271 271 271 271 271 271 271 271 273 274 274 275 276 277 278 277
284 284 283 283 283 282 282 282 281 281 280 279 279 278 277 276 276 275 274 274 273 273 273 273 272 272 272 271 271 271 271 270 270 270 270 270 270 270 270 270 271 271 271 271 273 273 274 275 276 277 277 277
284 284 284 283 283 283 282 282 281 281 280 279 278 278 277 276 276 275 274 274 273 273 273 273 272 272 272 271 271 270 270 270 270 269 269 269 269 269 269 269 270 270 270 271 272 272 273 275 276 277 277 276
284 284 283 283 283 283 282 282 281 281 280 279 278 277 277 276 276 275 275 274 273 273 273 272 272 272 271 271 270 270 270 270 269 269 269 268 268 268 268 269 269 269 269 270 271 272 273 275 276 276 276 275
284 283 283 283 283 282 282 281 281 280 279 278 277 277 277 276 276 275 275 274 273 273 273 272 272 271 271 271 270 270 270 269 269 269 268 268 268 268 268 269 269 269 269 269 270 271 272 274 274 274 275 274
284 283 283 283 282 281 281 280 280 279 279 278 278 277 277 276 276 275 275 274 274 273 272 272 271 271 271 270 270 270 269 269 269 268 268 268 268 267 268 268 268 268 268 269 269 270 271 272 273 273 273 272
283 283 283 283 282 282 281 280 280 280 280 279 278 277 277 276 276 275 275 274 274 273 272 271 271 271 270 270 270 269 269 269 269 268 268 268 267 267 267 268 268 267 268 268 268 269 269 270 271 271 271 270
283 283 283 283 283 283 282 282 282 282 281 279 278 277 277 276 276 276 275 274 274 273 272 271 271 270 270 270 269 269 269 269 268 268 268 267 267 267 267 267 267 267 268 268 268 268 268 268 269 269 269 269
Wind_Speed
12 10 9 8 8 8 9 10 10 10 10 9 8 8 6 5 6 6 7 9 10 10 10 13 16 16 16 16 17 17 18 18 18 18 17 16 16 16 16 16 17 18 18 18 18 19 20 22 23 24 23 22
10 9 8 7 8 8 9 9 9 8 9 9 9 8 7 5 5 5 6 7 8 9 9 9 12 14 15 16 15 15 16 17 17 17 17 16 16 15 15 16 17 17 18 18 18 19 20 22 23 23 23 23
8 8 7 8 8 8 8 8 8 8 9 9 10 9 8 7 6 6 7 8 8 8 9 9 9 11 13 13 13 14 14 14 15 15 15 14 13 14 15 16 17 17 18 18 19 20 21 22 22 23 23 23
8 8 8 8 8 8 9 8 8 9 9 9 9 9 8 7 7 7 8 8 9 9 9 10 9 10 10 11 12 13 13 12 12 12 13 13 13 14 15 15 16 16 17 18 19 20 21 22 22 23 23 23
8 9 8 8 8 8 8 8 8 8 8 8 8 8 7 7 7 7 8 8 9 9 9 10 10 10 11 11 12 13 13 13 12 12 12 13 14 15 16 16 16 16 17 17 18 19 20 22 23 23 23 24
8 8 7 7 8 8 8 8 7 7 7 7 7 7 6 7 7 7 7 8 9 9 10 11 11 11 12 12 13 13 13 13 13 13 13 13 14 15 16 16 17 18 18 18 18 19 20 22 23 23 24 24
8 8 7 7 7 7 7 7 7 7 7 7 6 6 6 7 7 7 8 8 9 10 10 11 12 12 13 13 14 14 14 14 14 14 14 14 15 15 16 17 18 19 19 20 20 20 21 22 22 23 24 25
9 8 8 8 8 8 7 7 6 6 6 6 6 6 6 7 7 8 8 9 9 10 11 12 13 13 14 15 15 15 15 15 15 15 15 15 16 16 17 18 18 19 20 20 21 22 22 22 23 23 24 25
9 9 9 9 8 7 7 6 5 5 5 5 5 6 7 7 8 8 9 10 11 12 13 14 15 15 16 17 18 18 18 18 18 18 17 17 17 17 18 18 19 19 20 21 21 22 22 23 23 23 23 24
10 10 9 8 7 6 5 5 4 4 4 5 6 7 7 8 8 10 10 11 12 13 15 15 17 17 18 19 19 20 20 20 20 20 20 20 19 19 19 19 19 19 20 21 21 21 22 23 23 24 24 24
10 8 7 6 5 3 3 3 3 4 5 6 7 8 8 9 10 11 12 13 14 15 16 17 18 18 19 19 20 21 21 21 22 22 22 22 21 21 21 20 20 20 20 21 22 22 22 23 23 24 24 24
8 7 6 4 3 1 2 3 4 5 6 7 8 9 10 10 11 12 13 14 15 16 17 18 18 19 20 20 20 21 21 21 22 22 22 23 23 23 23 23 22 22 22 22 22 22 23 23 24 24 25 25
6 5 4 3 1 0 1 3 4 5 6 7 8 9 10 11 12 13 14 15 16 16 17 18 18 19 19 20 21 21 21 22 22 23 23 23 23 23 24 24 24 24 23 23 22 22 23 23 23 24 24 25
5 4 3 2 1 1 1 3 4 5 6 8 9 10 11 12 13 14 14 15 15 16 16 17 17 18 18 19 20 21 21 22 22 23 23 24 24 24 24 24 24 24 24 24 23 23 23 23 23 23 24 25
4 3 2 1 1 1 2 4 5 6 8 9 10 12 13 14 14 15 15 15 16 16 16 16 16 16 17 18 18 19 20 21 21 22 22 23 23 24 24 24 24 24 24 24 24 24 24 23 23 23 23 24
3 3 2 1 1 2 4 5 6 8 9 10 11 12 13 14 14 15 15 16 16 16 16 16 15 16 16 16 17 18 19 19 20 21 21 22 22 23 23 24 24 24 25 25 25 25 24 24 24 24 24 24
3 3 2 2 3 4 5 6 7 8 9 10 10 11 13 13 14 15 15 16 16 16 16 15 15 15 15 16 16 17 18 19 20 20 21 21 22 22 23 24 24 25 25 26 26 26 26 26 25 25 25 25
4 3 2 2 3 4 5 6 7 8 9 10 10 11 12 13 14 15 15 15 15 15 15 15 15 15 15 16 17 17 18 19 19 20 20 21 22 22 22 23 24 24 25 26 26 27 27 27 27 26 25 25
4 3 3 3 3 4 5 6 7 8 9 10 11 12 13 13 14 14 15 15 14 14 14 14 14 14 15 15 16 17 18 19 19 20 20 20 21 22 22 23 23 24 25 26 26 27 27 27 27 27 26 24
5 4 4 3 3 3 4 6 7 8 9 10 11 12 13 14 14 14 15 14 14 13 13 13 13 13 14 15 16 17 18 19 19 19 19 19 20 21 22 22 23 23 24 26 27 27 27 27 27 26 26 24
6 5 4 3 3 3 4 5 7 8 9 10 11 12 13 14 14 15 15 14 14 13 12 12 13 13 14 15 16 17 18 18 18 19 20 20 20 20 21 22 23 23 24 26 27 27 27 26 25 25 24 22
7 5 4 3 3 4 4 5 7 7 8 9 10 11 12 13 14 14 14 14 13 13 12 12 13 13 14 15 16 16 17 17 18 19 19 20 20 19 19 20 21 22 24 25 27 27 26 25 25 24 20 17
8 7 6 5 5 5 5 6 6 6 7 8 8 9 10 11 12 12 13 12 12 12 12 12 13 13 14 15 16 16 17 17 18 19 19 20 20 20 18 18 18 20 23 25 26 25 25 25 23 20 14 10
11 10 9 9 8 7 6 6 6 6 6 7 7 8 9 11 11 11 11 11 11 11 11 12 12 13 14 14 15 16 16 17 17 18 19 19 19 19 19 18 17 19 23 25 24 24 26 24 20 15 8 4
14 13 12 11 10 9 7 7 7 6 6 7 7 8 9 10 11 11 11 11 11 11 11 12 12 13 13 14 14 14 14 15 15 16 17 18 18 17 18 18 16 19 21 20 19 22 24 21 15 8 3 2
16 14 13 12 11 10 9 8 8 7 7 7 7 8 8 9 10 11 11 12 12 12 13 13 13 14 14 14 14 14 14 14 14 15 16 16 16 14 15 15 13 17 17 12 13 15 15 13 9 4 2 3
17 15 14 13 13 12 11 10 9 9 8 7 7 7 7 8 9 10 10 11 12 13 13 14 14 14 15 14 14 14 14 14 14 15 15 15 14 12 13 11 11 14 12 9 12 10 6 6 6 4 4 5
18 16 16 16 15 14 13 12 11 11 10 9 7 7 7 7 7 8 9 10 11 12 13 14 14 14 15 14 15 14 14 14 14 15 15 14 13 13 11 9 9 12 11 9 9 6 4 4 4 3 4 11
21 20 20 19 17 16 15 14 14 14 13 11 9 8 7 7 6 6 7 8 10 11 12 13 14 14 14 14 14 14 13 13 14 14 15 14 13 13 11 8 9 11 10 8 6 4 4 3 2 2 7 14
24 24 23 22 21 20 19 19 19 18 15 13 12 10 9 8 6 6 7 8 9 10 12 13 13 14 14 14 13 13 13 13 13 14 14 13 13 12 10 7 8 9 8 7 5 3 2 4 4 5 8 8
27 27 27 26 26 25 23 23 23 20 16 14 14 12 11 9 7 7 7 8 8 10 11 12 13 14 14 14 13 12 13 13 12 13 13 12 12 11 8 7 7 8 7 7 6 4 4 6 7 7 7 4
Wind_Direction
83 75 69 64 53 53 61 69 70 70 70 68 68 66 64 58 53 52 44 41 41 41 46 48 43 38 34 31 30 28 27 26 24 24 22 21 18 17 14 7 3 4 8 9 8 7 2 359 360 1 360 0
78 72 69 68 69 76 80 81 79 74 69 65 67 67 67 62 54 48 39 36 39 39 39 43 41 37 33 28 24 19 21 23 23 24 23 23 20 13 1 353 351 353 357 357 356 355 352 352 354 355 356 358
90 88 90 93 92 92 91 88 82 74 67 64 64 67 68 64 59 52 47 43 39 39 35 33 33 31 28 20 10 3 6 12 16 17 17 14 5 353 345 345 347 347 348 347 346 345 346 346 347 348 350 353
99 100 102 102 99 97 94 89 82 77 71 68 68 67 67 61 56 50 47 42 36 33 29 27 23 17 14 8 359 356 357 358 359 360 359 354 346 340 339 341 341 340 340 340 340 339 339 340 340 341 343 346
104 104 104 101 103 102 97 93 87 83 77 73 71 67 62 53 46 42 37 31 28 22 19 17 12 8 4 360 354 353 352 349 348 344 341 337 334 333 333 333 332 332 333 333 333 333 333 333 334 336 337 338
114 113 113 109 110 108 102 100 93 87 82 76 72 65 53 44 38 33 26 21 17 11 10 6 1 359 356 353 350 348 347 345 341 338 336 331 329 327 326 325 325 325 326 327 326 326 326 327 329 330 331 331
126 127 127 122 118 113 107 102 95 88 83 75 66 57 44 41 35 26 19 13 9 4 360 355 352 350 348 347 345 344 343 341 339 337 335 331 328 325 323 323 323 324 324 324 323 323 323 324 325 325 326 326
132 131 131 125 120 114 109 101 94 85 77 68 56 44 35 29 21 14 10 5 359 352 349 346 344 342 341 342 341 341 340 339 338 336 334 332 329 327 326 326 326 325 324 324 323 323 323 323 322 322 322 322
130 130 129 122 117 112 107 97 86 75 61 50 38 26 21 14 6 359 355 353 347 344 345 342 340 340 340 340 340 339 339 339 338 337 336 334 333 331 330 330 328 327 326 324 324 323 323 322 322 321 320 319
131 132 129 119 114 108 97 81 62 49 31 21 14 7 4 358 351 349 347 345 343 343 342 342 342 342 341 341 340 339 340 340 339 338 336 336 335 334 332 330 328 327 326 325 324 324 322 322 321 321 321 320
136 134 128 119 112 99 70 48 19 8 3 359 356 351 348 345 342 342 342 341 342 342 342 342 342 342 341 340 339 339 339 338 337 336 335 335 334 333 332 330 328 326 325 324 323 322 321 321 320 320 320 320
142 135 131 125 117 93 29 4 346 349 350 345 341 340 339 338 337 337 338 338 339 341 340 340 340 340 338 338 338 337 336 334 334 334 332 332 331 331 330 329 328 326 325 324 323 321 319 319 318 318 318 318
145 139 144 143 153 286 347 332 337 345 341 337 336 335 335 335 335 335 336 336 336 336 336 336 336 335 334 335 334 334 334 333 333 333 332 331 330 329 327 327 326 325 324 324 323 321 319 317 316 315 315 314
152 154 166 170 206 293 329 327 341 342 336 337 336 335 336 336 336 336 336 336 335 334 333 332 331 330 331 331 329 330 331 331 331 331 331 330 330 329 327 327 326 324 323 321 321 320 318 317 315 314 313 311
169 176 191 205 256 322 330 338 341 337 336 335 334 335 336 335 336 337 338 337 336 335 334 333 332 331 329 329 328 328 329 329 329 329 329 329 329 329 328 328 326 325 323 321 320 318 318 317 315 314 312 310
192 204 222 263 325 334 336 340 335 332 333 330 332 333 332 333 334 335 336 336 336 336 337 336 335 334 332 332 330 330 329 329 328 328 328 327 327 326 326 326 325 325 324 322 321 319 319 317 316 316 314 311
213 227 255 299 318 328 330 329 327 327 328 329 332 331 330 331 331 332 333 334 335 336 337 336 336 336 336 336 335 334 332 331 330 330 330 329 328 328 327 326 326 326 324 324 323 322 322 320 320 318 316 315
222 234 262 291 305 314 318 319 323 325 328 330 331 331 331 331 331 331 332 333 333 334 334 335 335 337 337 338 337 336 336 336 336 335 335 335 333 332 332 330 330 328 326 326 324 324 324 323 323 321 319 319
226 239 258 276 293 304 312 318 323 326 329 331 333 335 333 333 334 334 335 336 335 335 335 335 335 336 337 337 337 338 338 339 339 339 341 342 340 338 337 335 334 332 329 328 326 326 325 325 325 323 323 323
228 235 246 260 280 295 310 317 323 327 331 334 337 338 336 336 336 337 338 339 339 338 337 336 336 335 335 335 336 338 339 340 342 342 344 345 345 343 340 339 337 335 332 329 327 327 327 327 326 324 324 326
223 226 232 244 266 292 307 316 322 329 333 338 340 340 338 336 335 335 336 337 338 338 337 336 335 334 333 333 335 337 338 341 343 344 346 346 348 347 343 342 339 336 334 331 328 327 328 329 328 327 327 325
217 218 223 236 260 285 299 308 315 325 330 334 338 339 337 334 332 331 330 332 333 334 335 333 333 332 332 333 334 336 337 340 342 344 346 346 348 348 346 346 341 338 335 331 329 329 329 330 329 330 329 324
216 217 225 237 249 261 273 287 299 311 318 324 331 333 333 332 330 328 328 328 327 328 329 328 329 329 331 332 333 336 337 341 342 343 344 345 347 346 346 347 342 340 336 331 330 329 329 331 333 335 331 322
215 218 223 227 233 240 250 266 278 291 302 314 324 329 332 333 331 329 328 326 325 326 327 326 328 328 330 330 332 335 338 341 342 341 342 343 345 344 343 345 343 342 339 334 332 331 332 335 338 337 327 323
218 220 223 225 229 236 243 256 268 281 295 308 318 325 331 333 333 331 329 328 328 329 329 330 329 330 331 331 333 336 338 339 338 338 340 340 344 343 342 345 346 344 344 343 340 336 334 340 348 352 13 35
225 228 231 235 239 242 248 255 264 276 287 297 305 317 326 330 332 331 330 330 328 328 329 329 328 329 329 329 332 334 335 336 335 337 340 342 345 344 342 345 346 347 353 352 340 332 326 337 358 5 352 318
229 235 237 241 243 245 248 252 257 264 269 277 286 301 316 323 327 329 329 328 325 325 324 324 324 324 324 325 327 329 331 333 333 336 340 344 346 343 340 342 344 350 2 354 333 326 310 330 345 315 324 315
231 234 235 238 241 243 244 248 251 254 255 259 267 282 295 306 317 323 326 326 324 323 320 319 319 317 318 319 321 325 327 328 330 333 336 339 341 342 341 338 338 347 1 1 350 341 311 316 314 291 353 335
229 230 233 234 234 235 236 239 241 241 244 247 248 259 271 283 299 311 319 326 324 321 317 314 313 312 312 313 316 319 320 322 325 327 331 333 334 338 340 330 328 339 348 355 7 9 324 314 298 285 342 332
229 231 234 233 230 231 232 233 237 240 243 243 242 248 256 266 282 299 313 321 322 319 314 310 309 307 306 307 311 312 313 316 318 321 325 328 328 331 333 324 320 329 335 334 338 352 307 282 285 300 326 328
229 232 235 234 235 237 237 238 243 246 244 241 242 245 250 258 271 287 300 309 313 313 309 307 305 303 301 302 306 306 306 310 312 316 320 321 320 322 322 316 312 316 323 322 318 318 298 278 277 291 305 299